TimeEST,TemperatureF,Dew PointF,Humidity,Sea Level PressureIn,VisibilityMPH,Wind Direction,Wind SpeedMPH,Gust SpeedMPH,PrecipitationIn,Events,Conditions,WindDirDegrees,DateUTC
12:51 AM,28.0,23.0,81,30.30,9.0,West,4.6,-,N/A,,Scattered Clouds,260,2012-12-14 05:51:00
1:51 AM,28.4,23.0,80,30.29,9.0,West,4.6,-,N/A,,Mostly Cloudy,260,2012-12-14 06:51:00
2:51 AM,28.9,21.9,75,30.28,10.0,Calm,Calm,-,N/A,,Scattered Clouds,0,2012-12-14 07:51:00
3:51 AM,28.9,23.0,78,30.27,10.0,West,3.5,-,N/A,,Scattered Clouds,260,2012-12-14 08:51:00
4:51 AM,26.1,21.0,81,30.25,9.0,SSW,3.5,-,N/A,,Scattered Clouds,210,2012-12-14 09:51:00
5:51 AM,28.0,21.9,78,30.26,10.0,West,3.5,-,N/A,,Mostly Cloudy,260,2012-12-14 10:51:00
6:51 AM,28.0,21.9,78,30.25,10.0,Calm,Calm,-,N/A,,Mostly Cloudy,0,2012-12-14 11:51:00
7:51 AM,27.0,23.0,85,30.23,10.0,Calm,Calm,-,N/A,Fog,Patches of Fog,0,2012-12-14 12:51:00
8:51 AM,37.0,27.0,67,30.22,10.0,SW,9.2,-,N/A,,Partly Cloudy,220,2012-12-14 13:51:00
9:51 AM,42.1,24.1,49,30.22,10.0,WSW,15.0,-,N/A,,Scattered Clouds,250,2012-12-14 14:51:00
10:51 AM,46.0,23.0,40,30.18,10.0,WSW,16.1,21.9,N/A,,Mostly Cloudy,240,2012-12-14 15:51:00
11:51 AM,46.9,21.9,37,30.14,10.0,WSW,13.8,-,N/A,,Mostly Cloudy,240,2012-12-14 16:51:00
12:51 PM,48.0,21.9,36,30.11,10.0,WSW,16.1,-,N/A,,Scattered Clouds,240,2012-12-14 17:51:00
1:51 PM,48.9,23.0,36,30.09,10.0,WSW,10.4,-,N/A,,Partly Cloudy,250,2012-12-14 18:51:00
2:51 PM,48.9,21.9,35,30.09,10.0,WSW,10.4,-,N/A,,Partly Cloudy,250,2012-12-14 19:51:00
3:51 PM,46.9,19.9,34,30.11,10.0,West,4.6,-,N/A,,Scattered Clouds,270,2012-12-14 20:51:00
4:51 PM,44.1,19.0,37,30.12,10.0,WNW,4.6,-,N/A,,Partly Cloudy,290,2012-12-14 21:51:00
5:51 PM,43.0,19.9,40,30.14,10.0,NW,6.9,-,N/A,,Partly Cloudy,310,2012-12-14 22:51:00
6:51 PM,41.0,21.9,47,30.16,10.0,WNW,5.8,-,N/A,,Partly Cloudy,290,2012-12-14 23:51:00
7:51 PM,37.9,21.9,53,30.18,10.0,Calm,Calm,-,N/A,,Partly Cloudy,0,2012-12-15 00:51:00
8:51 PM,36.0,23.0,59,30.19,10.0,Calm,Calm,-,N/A,,Partly Cloudy,0,2012-12-15 01:51:00
9:51 PM,36.0,24.1,62,30.18,10.0,WNW,3.5,-,N/A,,Clear,290,2012-12-15 02:51:00
10:51 PM,34.0,25.0,70,30.19,10.0,Calm,Calm,-,N/A,,Clear,0,2012-12-15 03:51:00
11:51 PM,33.1,25.0,72,30.18,10.0,Calm,Calm,-,N/A,,Clear,0,2012-12-15 04:51:00